Theta_e
303 303 304 305 306 305 305 306 307 309 310 311 312 314 316 317 318 320 321 323 324 324 325 325 325 325 325 325 324 324 324 324 324 324 324 323 323 324 325 325 325 325 325 324 323 321 318 317 316 315 314 314 313 310 308 308 311 313 314 315 314 314 313 313 313 312 311 310 309
303 303 304 305 306 306 305 305 306 306 307 308 309 311 313 316 318 319 321 321 324 325 326 327 326 326 326 326 325 324 324 324 324 324 323 322 321 321 323 323 324 325 324 323 319 316 313 313 313 312 310 309 309 307 306 304 307 309 311 311 311 310 309 310 310 309 309 309 307
302 303 303 303 303 304 304 304 304 304 304 305 307 308 310 312 315 317 319 321 322 323 325 326 328 327 326 325 324 324 324 324 324 323 321 319 316 316 316 316 317 318 318 317 313 311 310 310 310 309 308 306 306 305 304 303 305 306 307 306 306 306 306 307 307 307 306 306 305
302 302 303 303 302 302 302 303 303 303 303 304 305 306 307 308 311 314 316 319 319 321 323 325 326 326 325 324 324 324 324 323 323 321 318 313 311 310 309 309 309 311 311 311 309 308 307 308 308 308 307 306 306 305 304 302 303 303 303 301 302 304 304 304 304 304 304 304 303
303 302 302 302 302 302 302 302 302 303 303 304 305 305 306 306 308 310 312 315 317 319 320 321 321 322 323 323 323 323 323 321 319 316 313 310 308 307 307 307 307 308 309 310 309 309 309 309 308 307 306 306 305 302 300 299 300 300 300 301 302 302 302 301 301 301 301 301 299
302 302 301 302 302 302 303 303 303 303 303 304 304 304 305 306 306 306 307 310 314 317 317 316 316 317 318 319 320 320 319 316 314 311 309 307 306 305 306 306 307 308 309 310 310 310 309 309 307 306 304 303 300 298 298 299 300 301 301 302 301 301 300 299 299 299 299 298 297
303 302 302 302 302 303 303 304 304 304 304 304 304 304 304 304 304 304 306 310 314 315 315 314 314 315 316 317 317 315 313 311 310 308 307 306 305 305 306 307 308 309 309 309 309 308 307 307 305 304 303 302 301 299 299 299 301 302 301 301 300 299 298 297 297 297 297 297 297
304 304 304 304 303 303 304 304 305 305 305 306 305 304 303 303 304 305 308 312 313 313 313 313 312 312 313 314 313 311 310 308 307 306 305 305 305 305 307 307 307 308 307 307 306 305 305 304 303 302 302 301 301 300 299 298 301 301 300 299 299 298 297 297 297 297 297 296 296
304 304 304 303 303 304 304 304 304 305 305 305 304 304 303 304 306 309 311 312 313 312 312 311 310 311 310 310 309 309 308 307 305 305 304 304 305 306 307 307 307 306 306 305 304 303 303 303 303 302 301 301 301 300 299 299 300 300 299 298 297 297 297 297 296 296 296 296 295
304 303 303 303 303 304 304 304 304 304 304 304 304 305 306 309 309 310 311 312 311 311 310 310 310 309 308 307 306 306 305 305 304 304 304 305 305 306 306 306 305 305 304 303 303 303 302 302 302 302 301 300 300 300 300 300 299 298 297 296 296 296 296 295 295 296 296 295 294
303 303 303 303 304 304 304 304 304 305 305 305 305 306 307 308 308 307 308 309 309 308 308 308 308 307 307 306 305 305 305 305 305 305 305 305 305 305 305 305 305 304 304 303 303 302 301 301 301 301 300 300 300 300 300 299 298 297 296 295 295 295 295 294 294 294 294 293 292
303 303 303 303 303 303 303 304 305 306 306 305 306 305 305 305 305 305 306 306 306 306 306 306 306 306 305 305 305 305 305 305 305 306 306 305 305 305 305 305 304 304 303 303 302 301 301 301 300 300 299 299 299 299 298 298 296 295 295 295 295 295 294 294 293 293 292 292 291
303 303 303 303 303 303 304 305 305 305 305 305 304 304 304 304 304 304 304 304 304 304 304 305 304 304 304 305 305 305 306 306 306 306 306 305 305 305 304 304 304 303 303 302 302 301 300 300 300 299 298 298 298 297 296 296 295 295 295 294 294 294 293 293 292 292 291 291 290
302 303 303 303 304 304 305 305 305 304 304 303 303 303 303 303 303 303 303 303 303 303 304 304 304 305 305 305 305 306 306 306 305 305 305 304 304 303 303 303 302 302 301 301 301 300 299 299 299 298 297 296 296 295 295 295 294 294 294 294 293 293 292 292 291 291 291 290 290
302 303 303 303 304 304 304 304 304 303 303 302 302 302 302 302 303 303 304 303 303 303 304 303 304 304 305 305 305 305 304 304 304 303 303 302 302 301 301 301 300 300 299 299 299 299 298 297 296 296 295 294 293 293 293 293 293 293 294 294 293 292 292 291 290 290 289 289 289
302 303 303 303 303 303 303 302 302 302 301 301 302 302 302 303 303 303 304 304 304 304 303 303 304 304 304 304 304 303 303 303 302 302 301 301 300 300 300 299 299 299 298 298 297 297 296 295 294 294 293 292 292 292 292 291 291 292 292 292 292 291 291 291 290 289 288 288 289
303 303 303 302 301 301 301 301 301 301 300 300 301 301 302 302 303 303 303 303 302 302 302 302 303 303 303 303 303 303 302 301 301 300 299 299 299 298 298 298 298 298 297 296 295 295 294 294 293 293 292 291 291 291 291 291 291 291 291 291 291 291 291 291 290 289 288 288 289
303 302 302 301 300 300 300 300 300 300 299 300 300 301 301 301 302 302 302 302 302 301 301 301 301 301 301 300 300 300 300 299 299 298 298 297 297 297 297 297 296 296 295 295 294 294 293 293 292 292 292 292 292 292 292 292 292 292 292 291 291 291 291 290 290 289 289 289 290
302 301 301 300 300 300 301 301 300 300 300 300 300 301 301 301 301 301 301 301 301 301 300 300 300 299 299 298 298 298 298 297 297 296 296 296 296 296 295 295 295 294 294 294 294 294 293 293 293 293 292 292 293 293 293 292 292 292 291 291 291 291 291 290 290 290 290 290 290
301 300 300 300 300 300 301 301 301 301 301 301 301 300 300 301 300 300 299 299 300 300 299 298 298 298 297 297 297 297 297 296 296 295 295 295 295 295 295 295 294 294 294 294 294 294 294 294 293 293 293 293 293 292 292 292 292 291 291 291 291 291 291 291 291 290 290 290 290
301 301 301 301 300 300 300 300 301 300 300 300 300 299 299 300 299 298 298 298 298 298 297 297 296 296 295 295 295 295 295 296 295 295 295 295 295 294 294 294 294 294 294 294 294 294 294 294 293 293 293 293 292 292 292 292 292 291 291 291 291 291 291 291 291 290 290 290 290
301 301 302 301 301 301 301 301 301 301 300 300 299 298 298 298 297 297 297 297 297 297 296 295 295 295 295 294 294 294 295 295 295 295 294 294 294 294 294 294 294 293 293 293 294 294 294 294 293 293 293 292 292 292 292 292 291 291 291 291 290 290 290 290 290 290 290 290 289
303 303 302 302 302 301 301 301 300 300 299 299 298 297 297 297 297 297 297 297 297 296 296 295 295 295 295 294 294 294 294 294 295 295 295 294 294 294 294 294 293 293 293 293 293 293 293 293 293 292 292 292 292 292 292 291 291 290 290 290 290 289 289 289 289 289 289 289 289
303 302 302 301 301 300 300 300 299 299 298 298 298 297 297 297 297 297 297 297 296 296 295 295 295 295 295 295 294 294 294 293 294 294 294 294 294 294 294 294 294 293 293 293 293 293 293 293 292 292 292 292 292 291 291 290 290 290 289 289 289 289 288 288 289 289 289 289 289
301 301 300 300 300 299 299 299 298 298 298 298 298 297 297 297 297 296 296 296 295 295 295 295 295 295 294 294 294 294 294 293 293 293 293 294 294 294 294 294 294 294 294 295 296 296 295 294 293 293 292 292 291 291 290 290 289 289 289 288 288 288 287 287 288 288 288 288 288
300 300 299 299 298 298 298 298 298 298 297 297 297 297 297 297 296 296 296 295 295 295 295 294 294 294 294 294 293 293 293 293 293 293 293 293 293 293 294 294 294 295 295 296 297 297 297 296 295 294 292 291 291 290 290 289 289 288 288 287 287 287 286 286 286 286 286 286 287
299 298 298 298 298 297 297 297 297 297 297 297 296 296 296 296 296 296 295 295 295 295 294 294 294 294 294 294 293 292 292 292 292 292 293 293 293 293 293 294 294 295 296 297 298 297 297 297 295 294 292 290 290 289 289 288 288 287 287 287 286 286 286 286 285 286 286 285 285
298 298 297 297 297 297 296 296 296 296 296 295 295 295 295 295 295 295 295 294 294 294 294 294 293 294 293 293 293 292 292 291 291 291 292 292 292 292 292 294 294 296 297 298 298 298 297 296 295 294 293 291 289 288 288 288 287 287 286 286 286 285 285 285 285 285 285 285 285
298 297 297 296 296 296 296 296 295 295 295 295 295 295 294 294 293 293 294 294 294 294 294 294 293 293 293 292 292 292 291 290 290 290 291 291 292 293 294 295 295 296 297 298 298 297 297 296 295 294 293 291 289 289 288 288 287 287 286 286 286 285 285 285 285 285 285 285 284
297 297 296 296 296 295 295 295 295 295 295 295 294 294 293 292 293 293 293 293 293 293 293 293 292 292 292 292 292 292 291 291 291 291 292 293 294 294 295 295 295 296 297 298 297 297 296 296 295 294 293 292 290 288 287 287 287 286 286 286 285 285 285 285 285 285 285 284 284
296 296 295 295 295 294 294 294 294 294 294 294 293 293 292 292 293 293 293 293 293 293 292 291 290 290 290 290 290 291 292 293 293 293 294 294 295 295 295 295 295 296 297 297 297 296 296 295 294 293 292 291 289 287 286 286 286 285 285 285 285 285 285 285 284 284 284 284 284
295 295 294 294 293 293 293 293 293 293 293 293 293 293 293 293 293 293 293 293 292 292 291 290 290 291 291 291 291 292 292 293 293 294 294 294 294 294 294 294 294 295 296 296 296 296 295 295 294 293 292 291 289 287 285 285 284 284 284 285 284 284 284 284 284 284 284 284 284
295 294 294 293 293 293 293 293 293 293 293 293 293 293 294 293 293 293 293 293 293 292 292 292 292 292 292 293 293 293 293 294 294 294 294 294 293 293 293 293 294 295 296 296 295 295 294 294 293 292 291 290 287 285 284 284 284 284 284 284 284 284 284 284 284 284 284 284 284
294 294 293 293 293 293 293 293 293 293 293 293 293 293 293 293 293 293 293 293 293 293 293 293 293 293 293 293 293 293 293 293 293 293 292 292 292 292 292 292 293 294 295 295 295 294 294 293 292 291 290 289 286 284 283 283 283 283 284 284 283 283 283 283 283 283 283 283 283
294 294 293 293 293 293 293 293 293 293 293 293 293 293 293 293 293 293 293 293 293 293 293 293 293 294 293 293 293 292 292 292 292 291 291 291 291 291 291 292 292 294 295 295 294 294 293 292 291 290 289 287 285 283 282 282 283 283 282 282 282 282 282 282 282 282 282 282 282
294 293 293 293 293 293 293 293 293 293 292 292 292 292 292 292 293 293 293 293 293 293 293 293 293 293 292 292 292 291 291 291 291 290 290 290 289 290 290 291 292 293 294 294 293 293 292 291 290 289 288 285 283 282 282 282 282 282 282 281 281 281 281 281 281 281 281 281 281
294 293 293 292 292 292 292 292 292 292 292 292 292 292 292 292 292 293 293 293 293 292 293 293 292 292 291 291 291 290 290 290 290 290 290 290 289 289 290 290 291 292 293 293 293 292 291 291 290 288 286 284 282 281 281 281 281 281 281 280 281 280 280 280 280 280 280 281 281
293 293 292 292 292 292 292 292 292 292 292 292 292 292 292 292 292 293 293 293 293 292 292 291 291 290 290 290 290 290 290 289 289 289 289 289 290 290 290 289 290 291 292 292 292 291 291 290 289 288 286 283 281 280 281 280 280 280 280 280 280 280 280 280 279 279 280 281 283
293 293 292 292 292 292 292 292 292 292 291 291 292 292 292 292 292 293 293 293 292 291 291 290 290 290 290 290 289 289 289 289 289 289 289 289 289 289 289 289 289 290 291 292 291 291 290 290 289 288 286 283 281 280 280 280 279 279 279 279 279 279 278 278 278 278 278 280 284
293 292 292 292 292 292 292 291 291 291 291 292 292 292 292 292 292 293 293 292 291 291 290 289 289 289 289 289 289 288 288 288 288 289 289 289 289 289 289 288 288 289 290 291 291 291 290 290 289 288 286 283 280 279 279 279 278 278 278 277 277 277 276 276 276 276 276 277 281
292 292 292 292 292 291 291 291 291 291 291 291 291 291 291 291 291 291 291 291 290 290 289 289 289 289 288 288 288 287 287 287 287 287 288 288 288 288 288 286 286 286 287 289 290 290 290 289 289 288 286 283 279 278 278 277 277 276 276 275 275 275 275 275 275 275 275 275 276
Wind_Speed
3 3 3 3 2 2 2 3 3 3 2 2 3 3 3 3 3 4 3 3 3 3 4 3 3 2 1 2 3 3 3 3 3 3 3 4 4 5 5 6 8 9 9 9 8 5 3 3 3 2 1 1 3 2 2 2 1 1 2 3 3 4 5 6 8 9 10 10 7
4 4 4 4 3 3 3 3 3 3 3 3 3 3 3 3 3 4 3 3 3 4 4 3 3 2 2 3 2 1 1 1 1 2 2 3 4 3 4 6 8 9 9 8 6 4 3 4 4 3 3 2 1 0 1 2 3 2 2 1 1 0 1 3 4 4 5 5 4
4 4 4 4 3 3 3 3 3 3 3 3 3 3 3 3 3 3 4 3 3 3 3 3 2 2 3 3 3 3 2 2 1 1 1 1 1 1 1 2 4 5 6 6 5 4 4 4 4 4 4 3 2 2 1 2 2 3 3 3 3 2 2 1 2 1 1 1 2
4 4 4 4 4 4 3 3 3 4 4 4 3 3 3 3 3 3 3 3 3 2 2 2 1 2 4 5 6 6 5 4 3 1 1 3 4 4 5 5 5 5 6 6 6 5 5 5 4 4 4 4 3 2 2 2 3 3 3 3 3 3 3 2 2 2 2 1 0
4 4 3 3 4 4 3 3 3 4 4 3 3 3 3 3 2 2 3 3 2 1 0 1 2 3 4 5 6 6 6 6 5 5 5 5 6 6 6 6 6 7 7 7 7 7 6 6 5 4 4 4 3 2 2 3 3 3 3 2 2 2 2 2 2 2 2 2 2
4 4 4 3 3 3 3 2 3 3 3 3 3 3 3 3 3 2 3 3 2 1 1 2 3 4 5 5 6 6 6 6 6 7 7 7 6 6 6 7 7 7 7 7 7 7 7 6 5 4 4 4 3 3 3 4 4 4 3 3 3 2 2 2 2 2 2 3 3
4 4 4 4 4 4 3 3 3 3 3 3 3 4 4 4 3 3 3 2 1 0 1 2 3 4 5 6 6 6 6 6 7 8 8 7 6 6 7 7 7 7 7 7 6 6 6 6 5 4 4 4 3 3 3 4 4 4 4 3 3 2 2 2 2 2 3 4 4
4 4 5 5 5 5 4 4 4 4 4 4 4 4 4 4 3 2 2 2 2 3 3 3 4 5 6 7 7 7 8 9 8 8 8 7 7 7 8 8 8 7 7 6 6 7 7 6 5 4 3 3 3 3 3 4 4 4 4 4 3 2 2 2 2 2 3 4 4
5 5 6 6 5 5 5 5 4 4 4 4 4 4 3 3 3 3 4 4 5 5 4 4 6 7 9 9 9 9 8 9 9 8 7 7 8 8 8 8 8 7 7 6 7 8 7 6 4 4 3 3 3 3 4 5 5 5 4 4 3 3 3 3 2 2 3 3 4
6 6 6 6 6 6 5 5 4 4 4 3 4 4 5 6 6 6 5 5 6 6 6 6 8 9 11 10 9 9 8 8 8 8 8 7 8 8 8 7 7 7 7 6 7 7 7 6 5 4 4 4 4 4 5 5 5 5 4 3 3 3 3 3 2 3 3 3 4
6 6 6 5 6 6 5 4 4 4 5 5 6 7 8 9 8 6 5 5 8 9 8 8 9 10 10 9 9 8 8 8 8 8 9 9 9 8 8 7 7 7 7 6 6 6 6 6 6 6 5 4 4 5 5 5 5 5 4 3 3 3 3 3 3 3 3 4 4
6 6 6 6 6 4 3 4 4 5 6 7 8 9 9 8 7 6 6 8 10 10 9 9 9 10 9 8 8 8 8 8 9 9 9 9 9 9 8 8 7 7 7 7 6 5 6 6 6 6 6 5 4 4 5 5 5 5 4 3 3 3 3 3 3 3 3 4 4
5 6 6 5 5 4 5 5 5 6 7 8 8 8 8 7 7 7 8 10 10 9 8 8 9 8 8 7 7 7 8 8 9 9 9 9 9 9 8 8 8 8 7 7 6 6 6 6 6 7 6 6 5 4 5 5 5 5 5 4 4 4 3 4 3 3 4 4 4
5 5 5 5 6 6 6 7 7 7 8 8 7 7 7 6 7 7 8 9 8 8 8 8 8 7 7 7 7 8 8 8 9 9 9 9 9 9 9 8 8 7 7 6 6 6 6 6 6 7 7 6 6 5 5 5 5 5 5 5 4 4 4 4 4 4 4 5 5
6 6 7 8 8 8 8 8 7 7 7 7 7 6 6 6 6 7 7 8 8 8 8 8 8 8 8 9 9 8 8 8 9 10 10 10 9 9 9 8 8 7 6 6 6 7 7 6 6 7 7 7 6 5 5 5 4 4 4 5 5 4 4 4 4 4 5 5 5
8 8 9 9 9 9 8 8 7 6 6 6 6 6 6 6 7 7 8 9 8 8 8 8 8 8 8 9 9 9 9 9 9 10 10 10 9 9 8 8 7 6 6 7 7 7 7 6 6 7 7 7 6 6 5 5 5 4 4 4 4 4 4 4 4 4 5 5 5
9 9 10 10 10 9 9 7 6 6 6 7 7 7 7 7 7 8 9 9 8 8 9 9 8 7 7 8 8 8 8 8 9 9 9 9 9 8 8 7 7 6 7 7 7 7 7 7 6 6 7 7 6 6 6 5 5 5 5 5 5 4 4 4 4 4 4 5 5
9 10 10 10 9 9 9 8 7 7 7 7 7 7 7 7 8 8 9 9 9 9 10 9 9 8 8 8 8 7 7 8 8 8 8 8 8 8 7 7 7 7 7 7 8 8 8 7 7 6 6 6 6 6 6 6 6 6 6 6 6 5 5 5 5 4 4 5 5
9 9 9 8 8 8 9 9 8 8 8 7 7 7 8 8 8 8 8 9 10 10 10 10 9 9 9 9 8 8 8 8 9 9 8 8 8 8 8 8 7 7 7 8 8 8 8 7 7 6 6 6 7 7 7 7 7 7 7 6 6 6 6 5 5 5 5 5 5
8 8 8 7 7 8 8 8 8 8 8 8 8 9 9 10 9 9 9 10 10 10 10 10 9 9 9 10 9 9 8 7 8 8 8 8 8 8 8 8 8 7 7 8 8 8 8 7 7 7 7 7 8 8 8 8 7 7 7 6 6 6 6 6 6 6 5 5 5
7 7 7 7 7 7 7 8 8 9 9 10 10 10 10 10 10 9 10 10 10 11 10 10 10 10 10 9 9 9 8 7 8 8 8 8 9 9 8 8 8 8 8 8 8 8 8 7 7 7 7 8 8 8 8 7 7 7 7 6 6 7 7 6 6 6 6 6 5
6 6 6 7 7 8 8 9 9 10 10 10 10 10 9 9 9 9 9 10 11 11 10 10 10 9 9 9 8 8 7 7 8 8 8 8 8 8 8 8 8 8 8 7 7 7 7 7 7 7 7 7 8 8 8 7 7 8 8 7 7 7 7 7 6 6 6 6 6
6 7 7 7 8 9 9 10 10 10 10 10 9 9 8 8 9 9 10 10 10 10 9 9 9 9 9 8 8 8 8 8 9 9 9 8 8 8 8 8 8 8 7 6 6 6 7 7 7 7 7 7 7 7 7 7 7 7 8 8 7 7 7 7 7 7 6 6 5
7 7 7 7 8 9 9 9 9 9 9 9 9 9 8 9 9 10 10 10 10 9 8 7 8 8 8 8 8 8 9 9 9 9 9 9 8 8 8 7 7 7 6 5 6 6 6 6 6 6 6 7 7 7 7 7 7 7 7 7 7 7 7 7 7 7 6 6 4
8 8 8 8 8 9 9 9 9 9 9 9 9 9 9 9 10 10 10 10 9 9 8 7 7 7 7 8 8 9 9 9 9 9 9 8 8 7 7 6 6 5 4 5 8 9 9 7 6 6 6 6 6 6 7 7 7 7 7 7 7 7 7 7 7 6 6 5 4
8 8 8 9 9 9 9 9 9 9 9 9 9 9 9 9 9 9 9 9 8 8 7 7 7 7 7 7 8 8 8 8 8 8 8 8 8 7 6 5 4 4 4 7 10 11 11 11 10 8 6 5 6 6 6 7 7 7 6 6 6 6 6 6 6 6 5 5 5
8 8 8 9 9 9 9 8 9 9 9 9 9 9 9 8 8 8 9 8 8 7 7 6 6 7 7 7 8 8 7 7 7 7 8 7 7 7 6 5 4 3 5 8 11 12 12 12 12 11 8 6 6 6 6 6 7 7 6 6 6 5 5 5 5 5 5 4 4
7 8 8 9 9 9 8 8 9 9 9 9 9 9 8 8 8 8 8 8 7 7 6 6 5 5 5 6 7 8 7 7 6 6 7 7 6 6 5 4 4 5 7 10 11 12 12 13 13 12 10 7 6 6 6 7 6 6 5 5 5 4 4 4 4 4 4 4 3
7 7 8 8 8 8 8 9 9 9 9 9 9 9 8 8 8 8 7 7 7 6 5 5 4 4 4 6 7 7 7 6 6 5 5 6 6 5 5 5 5 7 10 12 12 12 12 12 12 12 11 9 6 5 5 5 5 5 5 4 4 4 3 3 3 3 3 4 3
6 7 7 8 9 8 8 8 8 8 8 8 9 8 8 7 7 7 7 7 6 5 5 4 4 5 5 6 6 6 6 5 5 5 5 6 6 6 6 6 6 7 10 12 12 12 12 12 12 12 11 10 7 6 5 5 5 5 4 4 3 3 3 3 3 3 3 3 3
5 6 7 8 8 8 8 8 8 8 8 8 8 8 8 8 7 7 6 6 6 5 5 4 5 5 5 5 5 5 5 5 5 5 5 6 7 8 8 8 7 8 10 12 12 12 11 12 12 12 12 11 8 6 5 5 5 4 4 4 4 3 3 3 3 4 4 4 3
5 6 7 7 8 8 8 7 8 8 8 8 8 8 8 7 7 6 5 5 5 5 5 5 6 6 6 5 5 5 5 5 5 5 6 7 8 9 9 9 8 8 10 12 12 11 11 12 12 12 12 11 9 7 6 5 5 5 5 5 4 4 4 3 3 4 4 4 3
6 6 7 7 8 8 7 7 7 8 8 8 8 8 7 7 6 5 5 4 4 5 5 5 6 6 6 6 6 6 6 6 7 7 8 9 9 9 9 8 7 8 10 11 11 11 12 12 12 13 13 12 9 7 6 5 5 5 5 5 4 4 4 4 4 3 3 3 3
6 6 7 7 7 7 7 7 7 7 8 8 8 7 7 6 6 5 5 4 4 4 4 4 5 5 5 5 5 6 7 7 8 8 9 9 9 9 7 5 5 7 10 11 11 12 12 13 13 14 13 12 8 6 5 5 5 5 5 5 4 4 4 4 4 3 3 3 3
6 6 7 7 7 7 7 8 7 8 8 8 7 7 6 6 5 5 4 4 4 4 4 4 4 5 5 6 6 7 8 9 9 9 8 8 8 8 7 5 5 8 11 12 12 12 13 13 14 14 13 10 7 5 5 5 5 5 5 5 4 4 4 4 4 4 4 4 4
6 7 7 7 7 7 7 7 7 7 7 7 7 6 6 5 5 4 4 4 4 4 4 5 5 6 6 7 7 8 8 9 9 9 8 8 7 7 6 6 6 9 11 12 12 13 13 14 14 13 12 8 5 4 4 5 5 5 5 4 4 4 4 4 4 4 4 4 4
6 6 7 7 7 7 7 7 7 7 7 7 6 6 5 5 4 3 3 3 4 4 5 6 6 7 8 8 8 8 8 8 8 8 8 7 7 6 6 6 7 8 10 12 12 13 13 13 13 12 10 6 5 4 4 4 4 4 4 4 4 3 3 3 3 3 3 3 3
6 6 7 7 7 7 6 6 7 7 7 6 6 5 4 4 3 3 3 3 4 5 6 7 8 8 8 8 8 8 8 8 8 8 8 7 6 6 6 6 6 7 9 11 12 12 13 13 13 11 9 5 4 4 4 3 3 3 3 3 3 2 2 2 2 2 2 2 2
6 6 6 6 6 6 6 6 6 6 6 6 5 4 4 3 3 3 3 4 5 6 7 8 8 8 8 8 8 8 8 8 8 7 7 6 6 6 6 6 6 6 8 10 12 12 12 12 12 11 9 6 4 3 3 3 3 3 3 2 2 2 2 2 2 1 1 2 3
5 6 6 6 6 6 6 6 6 5 5 5 5 4 4 3 3 4 5 5 6 7 7 8 8 8 8 9 8 8 8 7 7 6 6 6 6 7 7 6 6 6 8 10 11 12 12 12 12 11 9 5 4 3 3 3 3 3 2 2 1 1 2 2 2 2 2 2 3
5 5 6 6 5 5 5 5 5 5 5 5 5 5 4 4 4 5 6 6 6 6 7 7 8 8 8 8 7 7 7 7 6 6 6 6 6 6 6 5 5 5 6 8 10 11 12 12 11 11 8 5 3 3 2 3 3 2 1 1 1 1 1 2 2 2 2 2 3
Wind_Direction
293 287 280 275 270 268 266 267 264 263 263 267 274 279 281 279 273 268 262 253 245 241 238 233 221 224 256 299 311 307 292 279 289 292 285 274 268 255 243 245 252 255 256 254 247 233 200 153 138 135 167 241 248 251 264 312 313 256 187 186 198 200 201 205 214 216 216 214 211
292 287 284 281 278 276 274 274 273 272 270 267 269 274 280 284 283 280 273 259 249 243 240 235 226 226 243 260 269 264 247 255 311 318 301 275 269 252 232 223 223 222 219 213 200 180 154 137 135 137 143 157 168 140 31 4 7 11 12 349 343 301 238 233 242 237 227 216 208
290 290 290 289 285 280 276 274 274 274 273 272 271 273 278 283 288 288 285 274 264 257 252 250 245 209 190 197 205 206 203 206 245 292 306 306 338 41 130 170 184 182 175 163 149 136 123 118 116 116 116 115 108 93 65 28 41 46 44 33 34 35 30 357 346 340 306 221 209
296 293 290 285 278 271 266 265 269 271 272 273 275 275 276 278 285 292 295 296 290 286 289 308 335 145 154 162 171 174 174 171 173 157 77 49 46 53 65 79 96 107 113 113 109 106 102 98 94 94 96 98 95 90 78 58 58 59 56 47 49 50 50 44 38 41 44 53 242
306 297 287 275 267 262 258 261 268 273 276 279 285 286 285 282 287 297 307 309 304 297 319 37 81 114 132 146 155 156 152 144 133 114 92 75 68 70 75 82 89 94 97 100 103 103 100 95 90 87 87 89 87 85 82 77 73 70 65 55 54 56 60 62 63 67 71 74 61
308 301 291 276 267 265 267 269 273 276 281 289 294 295 294 294 298 302 302 299 285 254 174 118 110 113 118 124 128 125 120 114 108 100 94 92 90 89 88 89 91 93 97 100 102 101 99 95 92 88 84 84 83 85 87 87 86 84 78 66 56 56 64 72 75 80 85 89 84
305 302 297 292 290 293 296 297 295 295 296 300 298 296 295 298 300 297 291 290 295 359 68 73 93 103 107 107 103 100 97 94 93 94 95 96 90 84 82 81 81 83 87 92 94 93 91 89 90 89 88 89 87 84 82 86 89 88 84 76 62 57 58 67 73 83 94 101 101
309 306 303 301 302 304 305 306 310 313 314 313 309 305 303 304 306 314 335 22 46 49 50 54 75 88 93 93 92 92 91 91 91 91 92 94 88 83 80 78 77 77 78 80 83 83 82 81 84 89 91 93 93 87 82 82 84 84 82 78 68 60 59 67 74 86 98 104 104
313 310 307 306 304 303 303 307 317 326 330 330 331 330 330 338 4 30 48 61 65 63 62 64 72 77 80 82 84 87 89 91 91 90 89 89 87 85 82 80 79 77 76 74 77 79 80 81 82 84 87 90 92 91 88 85 85 83 81 80 77 71 66 68 79 92 101 103 102
309 308 308 307 303 302 305 319 343 360 9 11 14 20 26 33 39 47 58 72 73 68 65 66 72 75 77 78 80 84 86 90 90 88 86 83 83 83 83 83 83 81 79 75 77 79 80 82 81 80 81 86 92 94 93 90 88 87 86 87 88 83 78 72 81 93 101 104 103
304 304 305 303 301 305 319 355 20 35 43 47 44 43 44 42 39 42 53 68 70 67 64 65 72 76 79 80 81 84 86 88 89 87 85 82 81 81 82 83 84 84 82 78 79 79 80 81 82 81 80 81 87 91 91 90 91 91 91 91 93 92 90 84 82 87 97 103 105
305 305 305 305 310 326 3 44 51 53 52 51 47 47 47 44 39 42 52 63 68 68 66 65 71 77 81 84 85 86 88 90 90 90 88 87 87 86 84 82 81 80 79 77 77 79 82 86 88 87 84 79 79 83 87 91 94 96 97 94 93 95 96 94 89 92 98 103 107
314 316 321 329 351 23 52 67 63 56 51 51 49 49 49 46 44 48 57 63 68 69 69 66 69 74 79 84 86 88 91 93 94 94 94 93 91 89 85 80 77 75 74 74 76 81 88 93 96 95 91 82 79 82 88 97 102 106 108 107 104 104 105 104 104 105 106 106 108
339 350 5 24 41 53 61 64 59 54 51 52 52 52 51 49 47 52 60 65 68 69 69 68 67 68 73 79 84 88 91 94 95 95 93 90 86 82 80 77 75 75 75 76 80 86 91 96 98 97 94 90 86 86 91 100 109 116 120 122 120 118 118 118 118 116 113 112 111
19 31 41 50 53 56 58 57 56 55 53 54 53 53 54 53 51 55 61 66 67 68 69 70 70 69 71 75 79 82 85 87 88 88 87 84 81 79 79 79 79 80 82 85 85 86 88 91 94 96 98 98 95 94 95 99 107 115 120 125 125 125 124 124 122 118 116 116 115
42 46 50 54 54 55 57 57 58 57 55 55 55 56 57 58 56 58 62 66 67 68 69 71 73 72 72 72 74 76 78 80 81 82 83 82 82 82 84 86 87 89 90 90 87 85 83 84 89 94 99 102 101 99 97 96 97 99 102 107 111 114 117 118 114 112 111 113 115
50 52 54 56 57 58 59 60 60 59 57 57 56 58 60 61 62 63 64 67 70 70 70 70 71 71 70 68 68 70 72 74 76 78 80 83 84 86 87 89 90 90 90 89 88 85 83 81 84 89 94 98 99 96 93 88 84 81 80 81 85 90 95 100 99 100 102 105 109
55 56 57 58 60 62 63 63 63 61 60 59 59 59 61 62 64 65 67 68 71 72 72 70 69 69 68 65 63 64 67 70 73 75 78 82 84 86 86 86 85 85 85 87 87 87 86 84 84 85 88 90 90 88 85 81 77 75 73 72 72 73 75 78 81 86 93 99 102
58 59 60 60 62 64 65 66 65 63 62 61 61 62 62 63 64 65 66 66 68 70 71 71 69 67 66 66 65 65 68 71 74 76 78 79 80 82 83 83 82 82 83 85 86 86 86 86 86 86 87 87 86 84 82 80 79 77 75 73 70 68 67 66 68 72 79 88 90
59 61 62 64 65 67 67 67 67 66 65 63 61 62 64 65 65 66 67 67 68 69 70 72 72 70 69 68 68 68 69 73 75 77 78 78 77 78 79 81 81 81 82 83 85 86 87 88 88 88 89 89 89 87 86 85 84 82 80 77 73 70 67 66 67 68 70 74 76
62 64 66 68 70 71 71 72 71 71 69 68 65 65 66 67 67 68 70 71 71 70 70 71 73 74 74 73 73 73 74 75 76 77 77 76 75 76 77 79 79 79 80 81 84 86 88 89 89 90 90 91 92 92 92 92 90 87 84 81 77 74 72 71 71 71 70 68 68
67 69 70 70 72 74 75 76 76 76 74 73 71 70 70 70 71 72 73 74 74 73 72 72 74 76 78 79 80 81 80 77 75 75 75 75 75 75 75 77 77 78 79 81 84 87 89 90 91 91 92 93 94 95 96 96 93 90 88 85 82 79 76 74 74 73 72 69 67
71 71 71 71 73 75 77 77 78 78 77 77 76 74 74 73 73 73 74 75 75 75 76 76 77 79 81 83 85 84 82 78 75 74 74 75 76 77 77 78 78 79 80 82 85 89 91 92 91 91 92 93 93 94 95 96 96 95 94 92 88 83 79 75 74 73 73 71 71
67 68 69 70 72 75 77 77 77 77 77 77 77 76 75 74 73 72 73 74 75 77 78 79 80 81 81 82 82 81 81 79 77 76 74 75 77 78 79 80 80 82 84 88 94 96 96 95 93 91 90 90 90 91 92 93 95 97 97 95 92 87 82 77 75 74 72 70 70
65 66 67 69 70 72 73 74 74 75 75 75 75 74 73 72 72 73 73 74 75 77 79 81 81 80 79 77 77 77 77 78 79 79 78 77 77 78 79 81 84 87 93 101 106 105 104 102 98 94 92 91 92 90 89 88 90 92 94 95 94 91 87 81 77 73 68 62 52
66 67 68 69 69 70 70 71 71 72 71 71 70 70 71 71 73 74 75 75 75 75 76 78 80 80 80 78 76 75 76 78 81 83 84 84 82 81 81 85 89 93 102 110 110 109 107 105 101 97 93 92 94 93 90 87 85 85 87 90 91 92 92 89 83 77 71 64 54
70 71 71 71 71 70 70 71 70 69 68 67 67 67 68 69 71 73 74 75 74 73 72 73 76 79 81 80 79 78 78 80 83 85 87 89 88 87 87 89 93 99 107 111 110 109 107 106 103 99 95 91 92 94 94 91 87 84 83 84 86 89 93 96 94 89 83 75 66
77 78 78 77 75 74 74 73 71 69 67 67 67 67 67 67 68 69 70 71 71 70 70 70 71 75 79 80 81 82 82 82 84 87 89 90 90 90 90 92 95 101 106 107 107 106 106 106 105 103 100 95 93 93 95 95 92 88 85 85 86 89 92 97 99 97 94 87 77
84 86 85 83 81 79 76 74 73 72 71 71 70 69 67 65 64 65 67 69 69 69 70 72 72 75 79 83 85 85 85 84 87 90 92 91 89 88 88 88 92 98 102 104 105 106 108 109 109 108 106 102 97 95 95 97 96 94 92 90 91 94 97 99 100 99 98 94 87
85 87 88 87 85 82 79 77 77 77 77 76 74 70 67 64 66 68 70 71 71 71 73 76 78 81 83 87 89 90 89 89 90 92 93 92 90 88 86 86 89 96 101 104 105 107 109 111 112 111 108 104 98 94 93 95 95 95 94 94 94 95 95 95 94 93 91 90 86
83 86 88 88 86 84 82 81 82 82 82 80 77 75 73 72 73 74 75 77 78 78 78 78 81 83 85 87 88 89 90 89 86 86 87 89 90 89 88 86 88 94 100 103 105 107 110 112 112 111 108 104 98 93 89 90 89 89 90 90 89 88 86 84 81 79 78 78 77
83 85 87 88 87 86 85 85 86 86 85 84 82 82 81 81 81 81 83 85 87 87 85 84 86 87 87 87 87 87 87 87 85 85 86 88 89 88 87 86 87 94 100 105 107 110 112 113 112 110 107 102 96 89 84 84 83 83 82 81 79 77 74 73 72 70 67 67 68
86 85 85 85 86 85 85 84 85 85 84 83 84 85 85 85 84 85 87 89 91 92 92 92 92 93 93 94 93 92 91 88 87 87 87 88 88 87 87 86 90 98 105 109 111 113 113 113 111 107 103 98 91 84 79 80 81 81 80 78 74 71 69 68 67 63 59 56 55
89 87 85 84 84 84 83 82 81 81 81 81 82 83 84 84 84 84 86 88 89 90 90 90 92 94 95 96 96 95 93 90 88 87 87 87 86 86 87 88 93 104 108 110 111 112 111 110 106 103 99 94 88 82 79 81 83 85 86 84 79 72 66 62 60 55 50 44 41
91 90 89 86 86 85 85 84 83 83 83 84 84 84 83 84 85 87 89 92 92 90 88 87 88 89 90 90 89 90 91 91 89 88 86 86 86 86 87 88 92 101 105 106 107 107 106 105 102 100 97 93 89 85 85 88 90 91 91 88 80 71 62 57 54 49 45 42 41
94 95 94 92 92 92 92 93 92 91 90 90 90 90 89 89 90 93 97 100 98 96 94 92 90 90 89 88 87 87 89 90 89 87 85 83 83 84 84 84 87 96 101 103 104 104 104 103 102 100 98 95 91 90 92 94 95 93 89 84 75 66 60 56 54 50 46 44 43
97 98 99 99 99 99 101 102 101 99 98 96 96 96 97 98 99 101 103 104 101 98 96 94 92 90 89 88 87 86 86 87 87 86 84 81 81 83 83 81 83 91 98 102 103 104 104 103 103 102 101 96 94 93 94 93 91 86 80 75 69 62 57 56 54 51 47 45 48
97 100 101 103 104 105 106 106 105 104 104 102 102 103 104 106 106 106 104 100 98 97 96 94 92 91 90 90 89 86 84 83 84 85 85 84 84 86 88 86 86 91 98 103 104 104 105 105 105 104 102 96 94 93 92 89 85 79 75 71 64 54 45 42 43 40 34 32 54
94 98 101 105 107 107 107 106 106 106 107 107 106 106 106 106 104 98 93 90 93 95 96 95 94 93 93 91 90 87 84 82 83 86 89 89 90 92 93 92 92 95 99 103 104 105 105 106 105 104 101 94 91 90 90 87 83 78 73 67 57 39 19 7 11 8 4 360 36
89 93 97 101 104 105 105 105 104 103 104 103 102 100 97 93 90 88 88 88 91 94 95 95 95 95 94 93 91 88 85 81 79 81 86 89 90 90 91 90 90 94 98 102 103 104 104 105 105 104 101 92 89 88 89 89 84 79 71 58 47 21 356 344 351 353 348 337 356
82 86 90 93 96 98 98 99 97 94 92 91 91 91 90 88 88 88 90 91 92 93 94 94 94 93 93 93 92 89 85 79 73 71 74 79 80 81 81 80 82 85 92 100 102 103 104 105 107 108 108 103 95 88 88 88 87 85 75 39 28 16 357 345 350 351 347 335 330